This demonstration page uses our WeatherBlox Daily Observations layout. Learn more.

36.17497, -115.13722

Hourly Observations for June 24, 2016

Temp ( °F °C ) Dew Point ( °F °C ) Humidity (%) Winds ( mph kmh ) Pressure ( in mb ) Visibility ( mi km ) Precip ( " mm )
12:53 am 00:53 Clear 88 31.1 33 0.6 14 14 Calm 29.75 1008 10 16.0934 0 0
1:53 am 01:53 Clear 86 30 34 1.1 15 15 WNW 3 6 29.75 1008 10 16.0934 0 0
2:53 am 02:53 Clear 84 28.9 33 0.6 16 16 undefined N/A 29.76 1008 10 16.0934 0 0
3:53 am 03:53 Clear 83 28.3 28 -2.2 13 13 Calm 29.77 1008 10 16.0934 0 0
4:53 am 04:53 Clear 80 26.7 28 -2.2 15 15 NNW 7 11 29.78 1008 10 16.0934 0 0
5:53 am 05:53 Sunny 80 26.7 30 -1.1 16 16 N 7 11 29.79 1009 10 16.0934 0 0
6:53 am 06:53 Sunny 82 27.8 32 0 16 16 N 3 6 29.8 1009 10 16.0934 0 0
7:53 am 07:53 Sunny 86 30 31 -0.6 14 14 NNE 8 13 29.82 1010 10 16.0934 0 0
8:53 am 08:53 Sunny 90 32.2 28 -2.2 11 11 E 7 11 29.83 1010 10 16.0934 0 0
9:53 am 09:53 Sunny 92 33.3 29 -1.7 10 10 SE 8 13 29.83 1010 10 16.0934 0 0
10:53 am 10:53 Sunny 97 36.1 29 -1.7 9 9 ESE 5 7 29.81 1010 10 16.0934 0 0
11:53 am 11:53 Sunny 98 36.7 27 -2.8 8 8 ESE 3 6 29.81 1010 10 16.0934 0 0
12:53 pm 12:53 Sunny 101 38.3 27 -2.8 7 7 VRB 6 9 29.79 1009 10 16.0934 0 0
1:53 pm 13:53 Sunny 103 39.4 26 -3.3 6 6 SSW 8 13 29.76 1008 10 16.0934 0 0
2:39 pm 14:39 Sunny 106 41.1 24 -4.4 5 5 S 13 20 29.53 1000 10 16.0934 0 0
2:53 pm 14:53 Sunny 107 41.7 21 -6.1 5 5 SW 12 19 29.73 1007 10 16.0934 0 0
3:53 pm 15:53 Sunny 107 41.7 21 -6.1 5 5 WSW 12 19 29.71 1006 10 16.0934 0 0
4:53 pm 16:53 Sunny 106 41.1 21 -6.1 5 5 SSW 13 20 29.7 1006 10 16.0934 0 0
5:53 pm 17:53 Sunny 106 41.1 20 -6.7 5 5 WSW 9 15 29.68 1005 10 16.0934 0 0
6:53 pm 18:53 Sunny 104 40 20 -6.7 5 5 SW 13 20 29.69 1005 10 16.0934 0 0
7:53 pm 19:53 Sunny 101 38.3 20 -6.7 5 5 SW 13 20 29.69 1006 10 16.0934 0 0
8:53 pm 20:53 Clear 98 36.7 21 -6.1 6 6 SW 8 13 29.7 1006 10 16.0934 0 0
9:53 pm 21:53 Clear 95 35 24 -4.4 8 8 SW 6 9 29.72 1007 10 16.0934 0 0
10:53 pm 22:53 Clear 93 33.9 24 -4.4 8 8 SSW 5 7 29.74 1007 10 16.0934 0 0
11:53 pm 23:53 Clear 88 31.1 27 -2.8 11 11 NNW 5 7 29.76 1008 10 16.0934 0 0

Powered by AerisWeather